Location: Newark
(44.3100°N, 0.7769°W)
Time: 00:44:38
(UTC+00:00)

Envisat - Pass Details

Date: 26 November 2019
Orbit: 764 x 766 km, 98.1° (Epoch: 08 December)

Event Time Altitude Azimuth Distance (km) Brightness Sun altitude
Rises 19:36:24 0° 221° (SW) 3,221 6.7 -33.2°
Reaches altitude 10° 19:40:30 10° 254° (WSW) 2,302 6.2 -34.0°
Maximum altitude 19:42:08 11° 273° (W) 2,205 6.2 -34.3°
Drops below altitude 10° 19:43:46 10° 292° (WNW) 2,307 6.2 -34.6°
Sets 19:47:55 0° 325° (NW) 3,240 6.7 -35.3°
